TG6YMD-19 Weather Reports


time (UTC)temp
C
wind
direction
speed
KPH
gust
KPH
rain 1hr
cm
rain 24hr
cm
rain mn
cm
humidity
%
barometer
mb
20260502195551 39 90 14.5 0.0 0.00 0.00 0.00 22 1006.0
20260502194551 39 90 14.5 0.0 0.00 0.00 0.00 22 1006.0
20260502193550 39 90 14.5 0.0 0.00 0.00 0.00 22 1006.0
20260502192550 39 90 14.5 0.0 0.00 0.00 0.00 22 1007.0
20260502191549 39 90 14.5 0.0 0.00 0.00 0.00 22 1007.0
20260502190548 39 90 14.5 0.0 0.00 0.00 0.00 22 1007.0
20260502185548 38 0 0.0 0.0 0.00 0.00 0.00 24 1007.0
20260502184547 38 0 0.0 0.0 0.00 0.00 0.00 24 1007.0
20260502183546 38 0 0.0 0.0 0.00 0.00 0.00 24 1007.0
20260502182546 38 0 0.0 0.0 0.00 0.00 0.00 24 1009.0
20260502181545 38 0 0.0 0.0 0.00 0.00 0.00 24 1009.0
20260502180545 37 0 0.0 0.0 0.00 0.00 0.00 28 1009.0
20260502163537 35 0 0.0 0.0 0.00 0.00 0.00 34 1010.0
20260502162537 35 0 0.0 0.0 0.00 0.00 0.00 34 1011.0
20260502161536 35 0 0.0 0.0 0.00 0.00 0.00 34 1011.0
20260502160535 35 0 0.0 0.0 0.00 0.00 0.00 34 1011.0
20260502151532 32 0 0.0 0.0 0.00 0.00 0.00 46 1012.0
20260502150532 32 0 0.0 0.0 0.00 0.00 0.00 46 1012.0
20260502130524 26 0 0.0 0.0 0.00 0.00 0.00 69 1012.0
20260502123522 25 0 0.0 0.0 0.00 0.00 0.00 73 1012.0
20260502122521 25 0 0.0 0.0 0.00 0.00 0.00 73 1011.0
20260502121521 25 0 0.0 0.0 0.00 0.00 0.00 73 1011.0
20260502120520 23 227 4.8 9.7 0.00 0.00 0.00 86 1011.0
20260502115519 24 227 4.8 9.7 0.00 0.00 0.00 86 1011.0
20260502114519 25 227 4.8 9.7 0.00 0.00 0.00 86 1011.0
20260502113518 21 227 4.8 9.7 0.00 0.00 0.00 85 1011.0
20260502112518 22 228 4.8 8.0 0.00 0.00 0.00 85 1011.0
20260502111517 21 228 4.8 8.0 0.00 0.00 0.00 83 1011.0
20260502110516 21 228 4.8 8.0 0.00 0.00 0.00 83 1011.0
20260502105516 21 228 4.8 8.0 0.00 0.00 0.00 83 1011.0
20260502104515 21 228 4.8 8.0 0.00 0.00 0.00 83 1011.0
20260502103514 22 228 4.8 8.0 0.00 0.00 0.00 83 1011.0
20260502102514 22 220 4.8 8.0 0.00 0.00 0.00 83 1010.0
20260502101513 23 220 4.8 8.0 0.00 0.00 0.00 83 1010.0
20260502100513 23 220 4.8 8.0 0.00 0.00 0.00 83 1010.0
20260502091509 23 224 4.8 8.0 0.00 0.00 0.00 79 1010.0
20260502090509 23 224 4.8 8.0 0.00 0.00 0.00 79 1010.0
20260502071502 24 219 4.8 8.0 0.00 0.00 0.00 73 1010.0
20260502070501 23 219 4.8 8.0 0.00 0.00 0.00 72 1010.0
20260502065501 23 219 4.8 8.0 0.00 0.00 0.00 72 1010.0
20260502064500 23 219 4.8 8.0 0.00 0.00 0.00 72 1010.0
20260502063459 24 219 4.8 8.0 0.00 0.00 0.00 72 1010.0
20260502062459 25 210 4.8 6.4 0.00 0.00 0.00 72 1010.0
20260502061458 23 210 4.8 6.4 0.00 0.00 0.00 71 1010.0
20260502060457 24 210 4.8 6.4 0.00 0.00 0.00 71 1010.0
20260502055457 25 210 4.8 6.4 0.00 0.00 0.00 71 1010.0
20260502054456 23 210 4.8 6.4 0.00 0.00 0.00 70 1010.0
20260502053455 24 210 4.8 6.4 0.00 0.00 0.00 70 1010.0
20260502052455 25 217 3.2 4.8 0.00 0.00 0.00 70 1010.0
20260502051454 25 217 3.2 4.8 0.00 0.00 0.00 70 1010.0
20260502050453 26 217 3.2 4.8 0.00 0.00 0.00 70 1010.0
20260502045453 26 217 3.2 4.8 0.00 0.00 0.00 70 1010.0
20260502044452 27 217 3.2 4.8 0.00 0.00 0.00 70 1010.0
20260502043451 24 217 3.2 4.8 0.00 0.00 0.00 69 1010.0
20260502042451 25 193 1.6 3.2 0.00 0.00 0.00 69 1010.0
20260502041450 25 193 1.6 3.2 0.00 0.00 0.00 69 1010.0
20260502040449 26 193 1.6 3.2 0.00 0.00 0.00 69 1010.0
20260502035449 26 193 1.6 3.2 0.00 0.00 0.00 69 1010.0
20260502034448 26 193 1.6 3.2 0.00 0.00 0.00 69 1010.0
20260502033448 27 193 1.6 3.2 0.00 0.00 0.00 69 1010.0
20260502032447 25 92 1.6 3.2 0.00 0.00 0.00 67 1009.0
20260502031446 25 92 1.6 3.2 0.00 0.00 0.00 67 1009.0
20260502030446 26 92 1.6 3.2 0.00 0.00 0.00 67 1009.0
20260502025445 26 92 1.6 3.2 0.00 0.00 0.00 67 1009.0
20260502024444 27 92 1.6 3.2 0.00 0.00 0.00 67 1009.0
20260502023444 27 92 1.6 3.2 0.00 0.00 0.00 67 1009.0
20260502022443 28 84 1.6 4.8 0.00 0.00 0.00 67 1008.0
20260502021442 26 84 1.6 4.8 0.00 0.00 0.00 58 1008.0
20260502020442 27 84 1.6 4.8 0.00 0.00 0.00 58 1008.0
20260502015441 27 84 1.6 4.8 0.00 0.00 0.00 58 1008.0
20260502014440 28 84 1.6 4.8 0.00 0.00 0.00 58 1008.0
20260502013440 28 84 1.6 4.8 0.00 0.00 0.00 58 1008.0
20260502012439 29 89 3.2 4.8 0.00 0.00 0.00 58 1007.0
20260502011438 30 89 3.2 4.8 0.00 0.00 0.00 58 1007.0
20260502010438 35 90 14.5 0.0 0.00 0.00 0.00 32 1007.0
20260502005437 35 90 14.5 0.0 0.00 0.00 0.00 32 1007.0
20260502004436 35 90 14.5 0.0 0.00 0.00 0.00 32 1007.0
20260502003436 35 90 14.5 0.0 0.00 0.00 0.00 32 1007.0
20260502002435 35 90 14.5 0.0 0.00 0.00 0.00 32 1006.0
20260502001435 35 90 14.5 0.0 0.00 0.00 0.00 32 1006.0
20260502000434 35 90 14.5 0.0 0.00 0.00 0.00 32 1006.0
20260501235433 32 122 4.8 6.4 0.00 0.00 0.00 42 1006.0
20260501234433 32 122 4.8 6.4 0.00 0.00 0.00 42 1006.0
20260501233432 33 122 4.8 6.4 0.00 0.00 0.00 42 1006.0
20260501232431 33 175 9.7 11.3 0.00 0.00 0.00 42 1004.0
20260501231431 40 180 9.7 0.0 0.00 0.00 0.00 22 1004.0
20260501230430 40 180 9.7 0.0 0.00 0.00 0.00 22 1004.0
20260501225430 40 180 9.7 0.0 0.00 0.00 0.00 22 1004.0
20260501224429 40 180 9.7 0.0 0.00 0.00 0.00 22 1004.0
20260501223428 40 180 9.7 0.0 0.00 0.00 0.00 22 1004.0
20260501222428 40 180 9.7 0.0 0.00 0.00 0.00 22 1004.0
20260501221427 40 180 9.7 0.0 0.00 0.00 0.00 22 1004.0
20260501220426 40 90 9.7 0.0 0.00 0.00 0.00 22 1004.0
20260501215426 40 90 9.7 0.0 0.00 0.00 0.00 22 1003.0
20260501214425 40 90 9.7 0.0 0.00 0.00 0.00 22 1003.0
20260501213425 40 90 9.7 0.0 0.00 0.00 0.00 22 1003.0
20260501212424 40 90 9.7 0.0 0.00 0.00 0.00 22 1004.0
20260501211423 40 90 9.7 0.0 0.00 0.00 0.00 22 1004.0
20260501210423 40 90 9.7 0.0 0.00 0.00 0.00 22 1004.0
20260501205422 39 30 14.5 0.0 0.00 0.00 0.00 22 1004.0
20260501204421 39 30 14.5 0.0 0.00 0.00 0.00 22 1004.0
20260501203421 39 30 14.5 0.0 0.00 0.00 0.00 22 1004.0
20260501202420 39 30 14.5 0.0 0.00 0.00 0.00 22 1005.0
20260501201419 39 30 14.5 0.0 0.00 0.00 0.00 22 1005.0